Flag Weather past 2 weeks in Santiago de los Caballeros, Dominican Republic

Now
79 °F

Scattered clouds.


Feels Like: 82 °F
Forecast: N/A
Wind: 7 mph from Southeast

Location: Santiago

Current Time: Nov 24, 2014 at 7:06:09 PM

Latest Report: Nov 24, 2014 at 6:00 PM


Visibility: N/A

Pressure: 29.98 "Hg

Humidity: 84%

Dew point: 73 °F

Location of Santiago de los CaballerosLocation

Historic Weather in Santiago de los Caballeros — Graph

°F

Santiago de los Caballeros temperature yesterday

Maximum temperature yesterday: 86 °F (at 2:00 PM)
Minimum temperature yesterday: 72 °F (at 12:00 AM)
Average temperature yesterday: 76 °F

Past Weeks' High & Low Weather Summary

 TemperatureHumidityPressure
High90 °F (Nov 10, 2:00 PM)100% (Nov 10, 12:00 AM)30.09 "Hg (Nov 10, 12:00 AM)
Low68 °F (Nov 15, 8:00 AM)52% (Nov 13, 5:00 PM)29.83 "Hg (Nov 9, 6:00 PM)
Average78 °F86%29.97 "Hg
* Reported Nov 9 6:00 PM — Nov 24 6:00 PM, Santiago de los Caballeros, Weather by CustomWeather, © 2014

Note: Actual official high and low records may vary slightly from our data, if they occured in-between our weather recording intervals... More about our weather records

Advertising

Santiago de los Caballeros weather history for previous 24 hours

 ConditionsComfort  
Time TempWeatherWind HumidityBarometerVisibility
6:00 PM
Nov 24
79 °FScattered clouds.7 mph84%29.98 "HgN/A
5:00 PM81 °FScattered clouds.10 mph79%29.98 "HgN/A
4:00 PM81 °FScattered clouds.12 mph84%29.98 "HgN/A
3:00 PM77 °FScattered showers. Partly sunny.10 mph94%29.98 "Hg5 mi
2:00 PM75 °FLight rain. Partly sunny.13 mph100%30.01 "Hg4 mi
1:00 PM84 °FPartly sunny.14 mph70%30.01 "HgN/A
12:00 PM77 °FPartly sunny.14 mph94%30.04 "HgN/A
11:00 AM82 °FScattered clouds.12 mph70%30.04 "HgN/A
10:00 AM81 °FScattered clouds.13 mph74%30.04 "HgN/A
9:00 AM75 °FPartly sunny.9 mph94%30.04 "HgN/A
8:00 AM72 °FPartly sunny.6 mph100%30.04 "HgN/A
7:00 AM72 °FScattered clouds.3 mph100%30.01 "HgN/A
6:00 AM72 °FPassing clouds.6 mph100%30.01 "HgN/A
5:00 AM72 °FPassing clouds.7 mph100%29.98 "HgN/A
4:00 AM73 °FPassing clouds.5 mph100%29.98 "HgN/A
3:00 AM73 °FPassing clouds.3 mph100%29.98 "HgN/A
2:00 AM73 °FPassing clouds.7 mph94%30.01 "HgN/A
1:00 AM73 °FPassing clouds.8 mph100%30.01 "HgN/A
12:00 AM75 °FPassing clouds.9 mph94%30.01 "HgN/A
11:00 PM
Nov 23
75 °FPassing clouds.6 mph94%30.04 "HgN/A
10:00 PM75 °FPassing clouds.7 mph94%30.01 "HgN/A
9:00 PM75 °FPassing clouds.6 mph94%30.01 "HgN/A
8:00 PM77 °FPassing clouds.6 mph89%29.98 "HgN/A
7:00 PM77 °FPassing clouds.6 mph94%29.95 "HgN/A
Weather by CustomWeather, © 2014

See weather overviewHow to use our weather pages